COSMOS 991

导读

COSMOS 991(宇宙991)是苏联(归属独联体CIS)“宇宙”系列卫星,于1978年2月28日发射入轨。“宇宙”系列是苏联/俄罗斯规模最大的多任务卫星家族,涵盖应用、科学与技术试验卫星,该编号卫星延续系列命名传统,是冷战时期苏联航天发展进程中,卫星技术探索与空间应用布局的组成部分,见证了早期航天活动发展。

基本信息
目录编号:
10692
目录名称:
COSMOS 991
国际标识:
1978-022A
轨道中心:
EARTH
卫星名称:
COSMOS 991
卫星全名:
--
卫星状态:
在轨 (已飞行17727 天)
发射日期:
1978-02-28 UTC
国别 :
俄罗斯(独联体) (CIS)
星等 :
--
该卫星已列入 空间交会检测服务 Space Conjunction Data Service (SCDS) ,当前飞行风险评估等级: 无高风险
轨道信息
数据来源 国际轨道数据
星历时间: 2026-09-11T13:57:42+0800
6小时前
查看轨道信息
半长轴: 7354.189km
偏心率: 0.0037652
轨道倾角: 82.992°
近地点辐角 48.993°
升交点赤经 183.163°
平近点角 114.836°
近地点: 948.362km
远地点: 1003.742km
周期: 104.607分钟
每日圈数: 13.765773
详细信息
使用方式:
暂无
2D轨道图
3D轨道图
轨道高度分析图
轨道倾角分析图
轨道综合分析图
查看轨道综合分析图
交会数据列表
事件ID 空间交会对象 最接近时刻(TCA) 交会距离 交会风险概率(CRP) 交会风险指数(CRI) 操作
CDM_260913-064301-069203-020523
2026-09-13T
06:43:02+0000
1.318 km
极远距离
1.033487E-5 中风险 0.55
与全量物体交会距离演化趋势
与全量物体交会风险概率演化趋势